This is the latest recevied weather packets stored in our database for station/object N2OCK. If no packets are shown the sender has not sent any weather packets the latest 1 day(s).
| Time | Temp. | Humidity | Pressure | Rain* | Wind** | Luminosity | Snow |
|---|---|---|---|---|---|---|---|
| 1778003335 | 20.56° C | 65% | 1011 hPa | 0 mm | 3.58 m/s, 173° | 713 W/m² | - |
| 1778003032 | 20° C | 67% | 1010.9 hPa | 0 mm | 2.24 m/s, 187° | 717 W/m² | - |
| 1778002728 | 20° C | 66% | 1010.8 hPa | 0 mm | 3.13 m/s, 251° | 720 W/m² | - |
| 1778002425 | 20° C | 67% | 1010.9 hPa | 0 mm | 1.79 m/s, 216° | 723 W/m² | - |
| 1778002122 | 20° C | 67% | 1011 hPa | 0 mm | 2.68 m/s, 201° | 726 W/m² | - |
| 1778001820 | 20.56° C | 67% | 1011 hPa | 0 mm | 0.89 m/s, 183° | 727 W/m² | - |
| 1778001519 | 20° C | 69% | 1011 hPa | 0 mm | 0.45 m/s, 222° | 729 W/m² | - |
| 1778001217 | 20.56° C | 66% | 1011 hPa | 0 mm | 2.68 m/s, 244° | 731 W/m² | - |
| 1778000913 | 20.56° C | 65% | 1011 hPa | 0 mm | 2.24 m/s, 252° | 731 W/m² | - |
| 1778000610 | 21.11° C | 65% | 1011 hPa | 0 mm | 0.89 m/s, 210° | 734 W/m² | - |
| 1778000305 | 21.67° C | 64% | 1011.1 hPa | 0 mm | 0 m/s | 732 W/m² | - |
| 1778000001 | 21.11° C | 65% | 1011.2 hPa | 0 mm | 0.89 m/s, 217° | 732 W/m² | - |
| 1777999696 | 21.11° C | 66% | 1011.2 hPa | 0 mm | 1.34 m/s, 171° | 732 W/m² | - |
| 1777999394 | 21.11° C | 65% | 1011.2 hPa | 0 mm | 0.45 m/s, 246° | 732 W/m² | - |
| 1777999092 | 21.11° C | 67% | 1011.3 hPa | 0 mm | 0.45 m/s, 183° | 730 W/m² | - |
| 1777998791 | 20.56° C | 65% | 1011.4 hPa | 0 mm | 1.79 m/s, 238° | 728 W/m² | - |
| 1777998488 | 20° C | 68% | 1011.4 hPa | 0 mm | 1.79 m/s, 274° | 728 W/m² | - |
| 1777998184 | 20.56° C | 67% | 1011.3 hPa | 0 mm | 0.89 m/s, 196° | 725 W/m² | - |
| 1777997881 | 21.67° C | 65% | 1011.3 hPa | 0 mm | 0.45 m/s, 189° | 724 W/m² | - |
| 1777997579 | 21.11° C | 65% | 1011.3 hPa | 0 mm | 0 m/s | 720 W/m² | - |
| 1777997276 | 21.67° C | 63% | 1011.6 hPa | 0 mm | 1.79 m/s, 255° | 721 W/m² | - |
| 1777996974 | 21.11° C | 65% | 1011.6 hPa | 0 mm | 0.89 m/s, 206° | 715 W/m² | - |
| 1777996670 | 21.67° C | 64% | 1011.7 hPa | 0 mm | 0.45 m/s, 198° | 712 W/m² | - |
| 1777996366 | 21.67° C | 63% | 1011.5 hPa | 0 mm | 0.45 m/s, 216° | 706 W/m² | - |
| 1777996062 | 21.67° C | 64% | 1011.4 hPa | 0 mm | 1.34 m/s, 264° | 700 W/m² | - |
* Rain latest hour (hover to see other rain measurements)
** Current wind speed in m/s (hover to see current wind gust speed)